Radiation Dose at Monitoring Post of Fukushima Daini Nuclear Power Station
Date,Time,MP-1(microSv/h),MP-2(microSv/h),MP-3(microSv/h),MP-4(microSv/h),MP-5(microSv/h),MP-6(microSv/h),MP-7(microSv/h),Wind Direction,Wind Velocity(m/s),Rain
2019/01/07,00:00,0.226,0.195,0.316,0.295,0.277,0.157,0.096,west-northwest,2.5,No
2019/01/07,00:10,0.227,0.194,0.316,0.294,0.279,0.158,0.094,west-northwest,3.2,No
2019/01/07,00:20,0.227,0.194,0.316,0.295,0.280,0.156,0.094,west,4.7,No
2019/01/07,00:30,0.227,0.195,0.316,0.296,0.279,0.158,0.095,west,3.9,No
2019/01/07,00:40,0.226,0.194,0.314,0.295,0.278,0.156,0.096,west-northwest,4.0,No
2019/01/07,00:50,0.227,0.195,0.315,0.296,0.279,0.157,0.095,west-northwest,2.3,No
2019/01/07,01:00,0.227,0.194,0.315,0.295,0.279,0.157,0.095,north-northwest,1.5,No
2019/01/07,01:10,0.227,0.194,0.316,0.296,0.279,0.157,0.096,north-northwest,1.6,No
2019/01/07,01:20,0.227,0.195,0.316,0.295,0.278,0.157,0.095,north-northeast,1.1,No
2019/01/07,01:30,0.227,0.195,0.315,0.296,0.279,0.157,0.096,-,CALM,No
2019/01/07,01:40,0.227,0.195,0.316,0.297,0.280,0.157,0.096,southwest,0.8,No
2019/01/07,01:50,0.226,0.195,0.315,0.296,0.279,0.158,0.095,-,CALM,No
2019/01/07,02:00,0.226,0.194,0.316,0.295,0.279,0.157,0.095,west,0.6,No
2019/01/07,02:10,0.227,0.195,0.315,0.295,0.277,0.157,0.095,west,1.0,No
2019/01/07,02:20,0.226,0.195,0.316,0.296,0.278,0.157,0.095,west-northwest,0.9,No
2019/01/07,02:30,0.227,0.195,0.316,0.296,0.277,0.157,0.096,west-northwest,0.6,No
2019/01/07,02:40,0.226,0.195,0.315,0.295,0.278,0.157,0.096,north-northwest,0.8,No
2019/01/07,02:50,0.226,0.195,0.317,0.296,0.280,0.157,0.095,northwest,1.3,No
2019/01/07,03:00,0.226,0.195,0.316,0.295,0.278,0.157,0.095,northwest,2.7,No
2019/01/07,03:10,0.226,0.194,0.316,0.295,0.277,0.158,0.094,northwest,4.3,No
2019/01/07,03:20,0.226,0.194,0.317,0.294,0.279,0.158,0.096,west-northwest,3.6,No
2019/01/07,03:30,0.226,0.195,0.316,0.295,0.277,0.157,0.095,west-northwest,2.7,No
2019/01/07,03:40,0.227,0.195,0.316,0.296,0.278,0.156,0.095,northwest,4.3,No
2019/01/07,03:50,0.226,0.194,0.315,0.296,0.278,0.157,0.095,northwest,4.2,No
2019/01/07,04:00,0.227,0.194,0.316,0.295,0.279,0.157,0.095,northwest,4.0,No
2019/01/07,04:10,0.227,0.194,0.316,0.295,0.278,0.158,0.096,northwest,4.9,No
2019/01/07,04:20,0.227,0.194,0.315,0.296,0.279,0.157,0.095,northwest,4.7,No
2019/01/07,04:30,0.227,0.195,0.317,0.295,0.280,0.157,0.095,northwest,5.6,No
2019/01/07,04:40,0.228,0.194,0.316,0.296,0.280,0.157,0.095,northwest,5.4,No
2019/01/07,04:50,0.228,0.195,0.317,0.295,0.278,0.157,0.095,northwest,5.6,No
2019/01/07,05:00,0.227,0.194,0.316,0.297,0.278,0.157,0.095,northwest,5.6,No
2019/01/07,05:10,0.226,0.195,0.316,0.296,0.277,0.156,0.095,northwest,5.3,No
2019/01/07,05:20,0.226,0.194,0.317,0.295,0.278,0.157,0.095,northwest,5.4,No
2019/01/07,05:30,0.226,0.194,0.315,0.297,0.279,0.156,0.096,west-northwest,5.7,No
2019/01/07,05:40,0.228,0.194,0.316,0.295,0.278,0.157,0.095,west-northwest,5.7,No
2019/01/07,05:50,0.227,0.195,0.316,0.296,0.278,0.157,0.096,northwest,5.4,No
2019/01/07,06:00,0.227,0.194,0.316,0.294,0.278,0.158,0.095,west-northwest,4.7,No
2019/01/07,06:10,0.226,0.195,0.315,0.295,0.278,0.156,0.096,west-northwest,4.9,No
2019/01/07,06:20,0.227,0.195,0.316,0.295,0.279,0.157,0.095,west-northwest,3.8,No
2019/01/07,06:30,0.226,0.195,0.316,0.295,0.278,0.157,0.095,west-northwest,2.7,No
2019/01/07,06:40,0.226,0.194,0.316,0.294,0.278,0.157,0.095,west-northwest,3.2,No
2019/01/07,06:50,0.227,0.194,0.316,0.295,0.277,0.156,0.095,west-northwest,3.8,No
2019/01/07,07:00,0.225,0.195,0.314,0.294,0.278,0.156,0.095,west-northwest,4.5,No
2019/01/07,07:10,0.226,0.194,0.315,0.295,0.278,0.157,0.095,west,4.9,No
2019/01/07,07:20,0.227,0.195,0.316,0.295,0.278,0.157,0.095,west-northwest,5.7,No
2019/01/07,07:30,0.226,0.194,0.315,0.295,0.279,0.157,0.094,west,5.8,No
2019/01/07,07:40,0.226,0.194,0.317,0.294,0.278,0.156,0.094,west-northwest,4.5,No
2019/01/07,07:50,0.227,0.193,0.316,0.295,0.278,0.157,0.095,west,4.4,No
2019/01/07,08:00,0.226,0.194,0.315,0.295,0.279,0.156,0.095,west-northwest,3.8,No
2019/01/07,08:10,0.227,0.194,0.315,0.295,0.277,0.157,0.095,west-northwest,3.8,No
2019/01/07,08:20,0.227,0.194,0.313,0.295,0.278,0.156,0.094,west-northwest,3.4,No
2019/01/07,08:30,0.225,0.194,0.314,0.294,0.278,0.157,0.095,west-northwest,4.6,No
2019/01/07,08:40,0.225,0.194,0.316,0.294,0.277,0.156,0.095,northwest,4.9,No
2019/01/07,08:50,0.227,0.192,0.315,0.294,0.277,0.157,0.095,northwest,3.2,No
2019/01/07,09:00,0.226,0.195,0.315,0.293,0.277,0.156,0.094,west-northwest,3.0,No
2019/01/07,09:10,0.226,0.194,0.314,0.293,0.279,0.156,0.094,west-northwest,2.8,No
2019/01/07,09:20,0.226,0.193,0.314,0.294,0.278,0.156,0.096,northwest,2.4,No
2019/01/07,09:30,0.227,0.194,0.314,0.295,0.278,0.156,0.094,north,1.2,No
2019/01/07,09:40,0.224,0.193,0.316,0.294,0.278,0.156,0.094,north-northeast,1.1,No
2019/01/07,09:50,0.225,0.193,0.316,0.294,0.277,0.156,0.094,east,1.8,No
2019/01/07,10:00,0.225,0.192,0.315,0.293,0.278,0.156,0.094,east,2.2,No
2019/01/07,10:10,0.227,0.194,0.315,0.295,0.278,0.157,0.094,east,1.2,No
2019/01/07,10:20,0.226,0.194,0.315,0.294,0.278,0.156,0.095,east,1.8,No
2019/01/07,10:30,0.225,0.193,0.315,0.293,0.278,0.158,0.094,southeast,0.8,No
2019/01/07,10:40,0.225,0.193,0.315,0.295,0.276,0.157,0.095,east,2.7,No
2019/01/07,10:50,0.225,0.193,0.314,0.293,0.281,0.158,0.094,east-northeast,1.9,No
2019/01/07,11:00,0.224,0.193,0.316,0.294,0.278,0.156,0.094,northeast,1.0,No
2019/01/07,11:10,0.225,0.194,0.315,0.294,0.277,0.157,0.095,east-northeast,1.7,No
2019/01/07,11:20,0.224,0.193,0.313,0.295,0.277,0.157,0.095,-,CALM,No
2019/01/07,11:30,0.225,0.193,0.315,0.295,0.277,0.157,0.095,east-northeast,1.9,No
2019/01/07,11:40,0.224,0.193,0.316,0.295,0.278,0.157,0.094,north-northeast,1.7,No
2019/01/07,11:50,0.225,0.194,0.315,0.295,0.279,0.156,0.095,north,1.0,No
2019/01/07,12:00,0.223,0.195,0.313,0.295,0.280,0.156,0.094,west,5.7,No
2019/01/07,12:10,0.224,0.194,0.315,0.294,0.278,0.156,0.095,west,8.8,No
2019/01/07,12:20,0.225,0.194,0.312,0.294,0.278,0.156,0.095,west,9.5,No
2019/01/07,12:30,0.224,0.193,0.313,0.294,0.278,0.156,0.095,west-northwest,7.7,No
2019/01/07,12:40,0.226,0.193,0.315,0.295,0.279,0.157,0.095,west-northwest,7.4,No
2019/01/07,12:50,0.225,0.195,0.313,0.294,0.279,0.157,0.095,west,7.4,No
2019/01/07,13:00,0.225,0.193,0.315,0.294,0.278,0.157,0.095,west-northwest,7.8,No
2019/01/07,13:10,0.225,0.192,0.316,0.294,0.280,0.157,0.095,west,9.5,No
2019/01/07,13:20,0.226,0.195,0.314,0.294,0.279,0.155,0.094,west,8.8,No
2019/01/07,13:30,0.226,0.194,0.316,0.296,0.280,0.157,0.095,west-northwest,7.3,No
2019/01/07,13:40,0.225,0.194,0.316,0.295,0.279,0.156,0.095,west,6.6,No
2019/01/07,13:50,0.225,0.195,0.315,0.296,0.279,0.156,0.094,west,8.4,No
2019/01/07,14:00,0.226,0.194,0.314,0.295,0.277,0.157,0.094,west,9.5,No
2019/01/07,14:10,0.226,0.194,0.315,0.294,0.279,0.156,0.094,west,11.1,No
2019/01/07,14:20,0.224,0.194,0.315,0.295,0.278,0.156,0.094,west-northwest,8.6,No
2019/01/07,14:30,0.224,0.195,0.315,0.293,0.277,0.155,0.094,west-northwest,10.7,No
2019/01/07,14:40,0.226,0.193,0.313,0.294,0.280,0.156,0.095,west-northwest,7.3,No
2019/01/07,14:50,0.224,0.194,0.316,0.296,0.278,0.157,0.095,west-northwest,9.5,No
2019/01/07,15:00,0.226,0.194,0.315,0.294,0.278,0.157,0.095,west-northwest,8.6,No
2019/01/07,15:10,0.227,0.194,0.315,0.295,0.281,0.157,0.096,west,11.2,No
2019/01/07,15:20,0.226,0.194,0.316,0.296,0.280,0.157,0.095,west-northwest,7.7,No
2019/01/07,15:30,0.226,0.195,0.315,0.296,0.278,0.156,0.095,west-northwest,5.9,No
2019/01/07,15:40,0.226,0.195,0.315,0.294,0.282,0.157,0.095,west-northwest,4.0,No
2019/01/07,15:50,0.228,0.194,0.314,0.295,0.279,0.157,0.095,west-northwest,6.1,No
2019/01/07,16:00,0.227,0.193,0.315,0.297,0.278,0.156,0.095,west,6.0,No
2019/01/07,16:10,0.227,0.194,0.315,0.295,0.279,0.157,0.094,west,8.4,No
2019/01/07,16:20,0.226,0.194,0.315,0.296,0.279,0.158,0.095,west,9.4,No
2019/01/07,16:30,0.226,0.194,0.315,0.297,0.279,0.157,0.095,west,9.8,No
2019/01/07,16:40,0.225,0.194,0.315,0.295,0.278,0.156,0.095,west,9.7,No
2019/01/07,16:50,0.226,0.194,0.316,0.295,0.278,0.156,0.095,west-northwest,7.3,No
2019/01/07,17:00,0.225,0.194,0.315,0.295,0.280,0.157,0.095,west-northwest,3.3,No
2019/01/07,17:10,0.226,0.194,0.316,0.294,0.279,0.157,0.095,west-northwest,3.8,No
2019/01/07,17:20,0.227,0.195,0.315,0.295,0.279,0.157,0.095,west-northwest,5.7,No
2019/01/07,17:30,0.228,0.193,0.316,0.295,0.278,0.156,0.095,west,4.3,No
2019/01/07,17:40,0.226,0.194,0.316,0.295,0.279,0.156,0.094,west-northwest,4.8,No
2019/01/07,17:50,0.227,0.194,0.314,0.296,0.280,0.156,0.095,west-northwest,7.3,No
2019/01/07,18:00,0.227,0.194,0.315,0.295,0.278,0.157,0.094,west-northwest,6.4,No
2019/01/07,18:10,0.226,0.194,0.316,0.296,0.278,0.157,0.095,west-northwest,4.2,No
2019/01/07,18:20,0.227,0.195,0.315,0.296,0.279,0.158,0.095,west,5.9,No
2019/01/07,18:30,0.226,0.194,0.317,0.297,0.279,0.157,0.095,west-northwest,6.8,No
2019/01/07,18:40,0.226,0.195,0.315,0.294,0.278,0.157,0.096,west-northwest,4.5,No
2019/01/07,18:50,0.227,0.193,0.315,0.295,0.279,0.157,0.095,west-northwest,3.2,No
2019/01/07,19:00,0.227,0.195,0.316,0.296,0.278,0.157,0.095,west,1.4,No
2019/01/07,19:10,0.227,0.194,0.316,0.296,0.278,0.157,0.095,-,CALM,No
2019/01/07,19:20,0.226,0.196,0.316,0.295,0.278,0.157,0.095,northwest,1.6,No
2019/01/07,19:30,0.225,0.195,0.316,0.295,0.279,0.157,0.095,west,2.6,No
2019/01/07,19:40,0.227,0.194,0.316,0.295,0.278,0.156,0.095,west-northwest,1.8,No
2019/01/07,19:50,0.226,0.193,0.316,0.296,0.277,0.156,0.095,west-northwest,2.5,No
2019/01/07,20:00,0.228,0.194,0.316,0.295,0.278,0.157,0.096,west-northwest,1.8,No
2019/01/07,20:10,0.226,0.194,0.316,0.295,0.279,0.157,0.095,northwest,3.0,No
2019/01/07,20:20,0.227,0.195,0.315,0.296,0.279,0.157,0.096,west-northwest,3.9,No
2019/01/07,20:30,0.226,0.194,0.316,0.296,0.278,0.157,0.095,west-northwest,2.9,No
2019/01/07,20:40,0.227,0.194,0.314,0.295,0.279,0.156,0.095,west-northwest,2.7,No
2019/01/07,20:50,0.226,0.194,0.316,0.296,0.278,0.156,0.095,northwest,3.1,No
2019/01/07,21:00,0.226,0.195,0.316,0.296,0.278,0.157,0.095,northwest,3.2,No
2019/01/07,21:10,0.227,0.194,0.316,0.296,0.277,0.157,0.095,northwest,4.1,No
2019/01/07,21:20,0.227,0.193,0.316,0.296,0.278,0.156,0.095,west-northwest,3.5,No
2019/01/07,21:30,0.226,0.194,0.316,0.295,0.278,0.157,0.096,west-northwest,4.3,No
2019/01/07,21:40,0.225,0.195,0.315,0.295,0.279,0.157,0.096,west,4.9,No
2019/01/07,21:50,0.226,0.194,0.317,0.296,0.278,0.157,0.095,west,6.8,No
2019/01/07,22:00,0.228,0.194,0.315,0.296,0.279,0.157,0.095,west,7.6,No
2019/01/07,22:10,0.226,0.195,0.315,0.295,0.276,0.157,0.095,west-northwest,6.8,No
2019/01/07,22:20,0.227,0.194,0.317,0.297,0.280,0.157,0.095,west-northwest,5.4,No
2019/01/07,22:30,0.227,0.194,0.315,0.297,0.279,0.157,0.096,west-northwest,6.7,No
2019/01/07,22:40,0.226,0.194,0.316,0.294,0.278,0.158,0.097,west-northwest,5.9,No
2019/01/07,22:50,0.226,0.195,0.316,0.295,0.278,0.156,0.096,west,9.2,No
2019/01/07,23:00,0.226,0.194,0.315,0.296,0.280,0.158,0.095,west,8.5,No
2019/01/07,23:10,0.227,0.195,0.315,0.298,0.278,0.158,0.095,west,9.3,No
2019/01/07,23:20,0.227,0.196,0.315,0.296,0.278,0.157,0.096,west-northwest,8.8,No
2019/01/07,23:30,0.227,0.194,0.316,0.297,0.279,0.157,0.096,west-northwest,5.5,No
2019/01/07,23:40,0.228,0.196,0.316,0.295,0.279,0.158,0.095,west-northwest,4.8,No
2019/01/07,23:50,0.227,0.194,0.316,0.295,0.279,0.157,0.095,west-northwest,4.7,No
